User: anonymous   Login
Location: Unspecified
(0.0000°N, 0.0000°E)
Time: 05:10:01
(UTC+00:00)
Language:

Intelsat 501 - Orbit

View from above orbital plane
View from above orbital plane
View from above satellite
View from above satellite

Ground track
Ground track

The orbit data is extracted from the following two-line orbital elements,

1 12474U 81050A   18292.45063116 -.00000244 +00000-0 +00000-0 0  9991
2 12474 014.7302 347.3690 0006823 242.7724 288.2318 00.98854537110010
Epoch (UTC): 19 October 2018 10:48:54
Eccentricity: 0.0006823
inclination: 14.7302°
perigee height: 36159 km
apogee height: 36217 km
right ascension of ascending node: 347.3690°
argument of perigee: 242.7724°
revolutions per day: 0.98854537
mean anomaly at epoch: 288.2318°
orbit number at epoch: 11001

The dashed part of the orbit path shows where the satellite is in the earth's shadow,  

DLR